RPC9307 RPUN-RPLB

Flight info

Callsign RPC9307
Flight time N/A
Altitude 20000
Route NGA W15A RAGAY W15 MIA M765 KEERO LBG
Aircraft B58T/L-SDFGRY/C

Departure

Time 2026-05-05 08:39
Airport Naga Airport (RPUN)

Arrival

Time N/A
Airport Subic Bay International Airport / Naval Air Station Cubi Point (RPLB)
Time Latitude Longitude Altitude Speed Heading
2026-05-05 08:33 13.58443 123.26877 153 ft 0 kts 14°
2026-05-05 08:35 13.58455 123.26884 153 ft 7 kts 43°
2026-05-05 08:35 13.58489 123.26952 152 ft 13 kts 64°
2026-05-05 08:35 13.58498 123.27019 152 ft 12 kts 88°
2026-05-05 08:36 13.58557 123.27117 154 ft 21 kts 43°
2026-05-05 08:36 13.58684 123.27239 153 ft 28 kts 47°
2026-05-05 08:36 13.58819 123.27368 157 ft 18 kts 41°
2026-05-05 08:36 13.58843 123.27391 157 ft 7 kts 42°
2026-05-05 08:37 13.58811 123.27371 157 ft 0 kts 224°
2026-05-05 08:38 13.58772 123.27333 156 ft 37 kts 225°
2026-05-05 08:38 13.58395 123.26950 154 ft 108 kts 225°
2026-05-05 08:39 13.57796 123.26337 309 ft 129 kts 223°
2026-05-05 08:39 13.57139 123.25730 714 ft 131 kts 221°
2026-05-05 08:39 13.56476 123.25155 1288 ft 120 kts 217°
2026-05-05 08:39 13.55827 123.24617 1666 ft 117 kts 212°
2026-05-05 08:40 13.55252 123.24067 2063 ft 113 kts 230°
2026-05-05 08:40 13.54745 123.23434 2395 ft 116 kts 227°
2026-05-05 08:40 13.54372 123.22721 2783 ft 118 kts 270°
2026-05-05 08:40 13.54586 123.21919 3128 ft 117 kts 290°
2026-05-05 08:41 13.54821 123.21116 3440 ft 122 kts 287°
2026-05-05 08:41 13.55043 123.20211 3603 ft 139 kts 287°
2026-05-05 08:41 13.55359 123.19244 3839 ft 146 kts 290°
2026-05-05 08:41 13.55665 123.18255 4175 ft 145 kts 288°
2026-05-05 08:42 13.55962 123.17249 4469 ft 148 kts 288°
2026-05-05 08:42 13.56259 123.16237 4822 ft 148 kts 287°
2026-05-05 08:42 13.56556 123.15218 5117 ft 150 kts 287°
2026-05-05 08:42 13.56856 123.14187 5420 ft 150 kts 287°
2026-05-05 08:43 13.57155 123.13154 5706 ft 151 kts 287°
2026-05-05 08:43 13.57458 123.12115 6015 ft 152 kts 286°
2026-05-05 08:43 13.57760 123.11069 6320 ft 153 kts 287°
2026-05-05 08:43 13.58063 123.10021 6608 ft 153 kts 287°
2026-05-05 08:44 13.58369 123.08972 6895 ft 154 kts 287°
2026-05-05 08:44 13.58670 123.07931 7188 ft 154 kts 287°
2026-05-05 08:44 13.58977 123.06871 7469 ft 155 kts 287°
2026-05-05 08:44 13.59288 123.05806 7764 ft 155 kts 287°
2026-05-05 08:45 13.59596 123.04742 8062 ft 156 kts 287°
2026-05-05 08:45 13.59905 123.03674 8371 ft 156 kts 287°
2026-05-05 08:45 13.60215 123.02602 8658 ft 157 kts 287°
2026-05-05 08:45 13.60421 123.01889 8845 ft 157 kts 287°
2026-05-05 08:46 13.60841 123.00444 9258 ft 158 kts 287°
2026-05-05 08:46 13.61149 122.99375 9562 ft 158 kts 287°
2026-05-05 08:46 13.61466 122.98285 9859 ft 159 kts 287°
2026-05-05 08:46 13.61780 122.97194 10179 ft 160 kts 287°
2026-05-05 08:47 13.62094 122.96099 10453 ft 160 kts 287°
2026-05-05 08:47 13.62416 122.95002 10704 ft 161 kts 287°
2026-05-05 08:47 13.62735 122.93896 10939 ft 162 kts 287°
2026-05-05 08:47 13.63058 122.92782 11206 ft 162 kts 287°
2026-05-05 08:48 13.63379 122.91667 11471 ft 163 kts 287°
2026-05-05 08:48 13.63703 122.90549 11736 ft 164 kts 287°
2026-05-05 08:48 13.64028 122.89427 12007 ft 164 kts 287°
2026-05-05 08:48 13.64353 122.88302 12282 ft 164 kts 287°
2026-05-05 08:49 13.64679 122.87171 12555 ft 165 kts 287°
2026-05-05 08:49 13.65006 122.86037 12830 ft 165 kts 287°
2026-05-05 08:49 13.65336 122.84901 13108 ft 166 kts 287°
2026-05-05 08:49 13.65666 122.83758 13386 ft 167 kts 287°
2026-05-05 08:50 13.65997 122.82611 13662 ft 168 kts 287°
2026-05-05 08:50 13.66329 122.81458 13900 ft 168 kts 286°
2026-05-05 08:50 13.66664 122.80301 14120 ft 169 kts 287°
2026-05-05 08:50 13.66994 122.79153 14347 ft 170 kts 286°
2026-05-05 08:51 13.67331 122.77988 14597 ft 170 kts 287°
2026-05-05 08:51 13.67668 122.76821 14839 ft 170 kts 287°
2026-05-05 08:51 13.68007 122.75649 15078 ft 171 kts 287°
2026-05-05 08:51 13.68346 122.74472 15325 ft 172 kts 287°
2026-05-05 08:52 13.68686 122.73293 15567 ft 172 kts 287°
2026-05-05 08:52 13.69026 122.72107 15817 ft 173 kts 287°
2026-05-05 08:52 13.69370 122.70916 16061 ft 174 kts 287°
2026-05-05 08:52 13.69714 122.69724 16309 ft 174 kts 287°
2026-05-05 08:53 13.70059 122.68525 16554 ft 175 kts 287°
2026-05-05 08:53 13.70407 122.67320 16807 ft 176 kts 287°
2026-05-05 08:53 13.70756 122.66111 17056 ft 176 kts 287°
2026-05-05 08:53 13.71104 122.64899 17311 ft 177 kts 287°
2026-05-05 08:54 13.71454 122.63679 17550 ft 178 kts 287°
2026-05-05 08:54 13.71806 122.62456 17815 ft 178 kts 287°
2026-05-05 08:54 13.72171 122.61193 17884 ft 191 kts 287°
2026-05-05 08:54 13.72562 122.59838 17891 ft 203 kts 287°
2026-05-05 08:55 13.72988 122.58412 17891 ft 213 kts 291°
2026-05-05 08:55 13.73663 122.57026 17891 ft 220 kts 298°
2026-05-05 08:55 13.74378 122.55628 17888 ft 221 kts 298°
2026-05-05 08:55 13.75075 122.54234 17888 ft 222 kts 298°
2026-05-05 08:56 13.75313 122.53758 17889 ft 222 kts 298°